Regional Weather Roundup
Issued by NWS Cleveland, OH

Home | Current Version | Previous Version | Text Only | Print | Product List | Glossary Off
Versions: 1 2 3 4 5 6 7 8 9 10 11 12 13 14 15 16 17 18 19 20 21 22 23 24 25 26 27 28 29 30 31 32 33 34 35 36 37 38 39 40 41 42 43 44 45 46 47 48 49 50

000
ASUS41 KCLE 162010
RWRCLE
OHIO REGIONAL WEATHER ROUNDUP
NATIONAL WEATHER SERVICE CLEVELAND, OH
300 PM EST SAT DEC 16 2017

NOTE: "FAIR" INDICATES FEW OR NO CLOUDS BELOW 12,000 FEET WITH NO
SIGNIFICANT WEATHER AND/OR OBSTRUCTIONS TO VISIBILITY.

OHZ001>008-015>018-024>027-034-035-043-044-162100-
   NORTHWEST OHIO

CITY           SKY/WX    TMP DP  RH WIND       PRES   REMARKS
DEFIANCE       SUNNY     43  28  55 VRB5      29.97R
FINDLAY        SUNNY     44  28  53 W13       29.96S
TOLEDO EXPRESS SUNNY     40  30  67 SW8       29.97R
TOLEDO EXEC    SUNNY     40  29  64 SW10      29.98S
LIMA           SUNNY     45  30  55 SW14      29.96S
$$

OHZ009>014-019>023-028>033-038-089-162100-
   NORTHEAST OHIO

CITY           SKY/WX    TMP DP  RH WIND       PRES   REMARKS
CLE-HOPKINS    CLOUDY    40  28  62 SW12      30.01R
CLE-LAKEFRONT  CLOUDY    39  28  64 SW8       29.99R
CUY CO. ARPT   PTSUNNY   39  30  70 W9        30.00R
LORAIN-ELYRIA  CLOUDY    39  24  55 W13       29.99R
ASHTABULA      LGT SNOW  32  31  96 W6        30.01R FOG     WCI  26
AKRON-CANTON   MOSUNNY   40  26  57 SW8       29.99R
WOOSTER        SUNNY     41  27  57 W10       29.99S
MANSFIELD      SUNNY     42  28  57 SW15G22   29.98R
YOUNGSTOWN     CLOUDY    37  26  64 SW9       29.99R
$$

OHZ042-051>053-060>062-070>072-077>081-162100-
  SOUTHWEST OHIO

CITY           SKY/WX    TMP DP  RH WIND       PRES   REMARKS
CINC-COVINGTON SUNNY     49  28  44 SW15      30.04F
CINC-LUNKEN    SUNNY     50  29  44 S16       30.07F
HAMILTON       SUNNY     51  27  39 SW14G21   30.05R
DAYTON         SUNNY     48  29  47 SW20G25   30.00S
WRIGHT-PAT AFB SUNNY     49  25  39 SW20G25   30.00F
DAYTON GENERAL SUNNY     48  26  42 SW17G24   30.01S
WILMINGTON     SUNNY     48  29  47 SW17      30.02S
$$

OHZ036-037-039>041-045>050-054>059-063>069-073>076-082>088-162100-
  CENTRAL AND SOUTHEAST OHIO

CITY           SKY/WX    TMP DP  RH WIND       PRES   REMARKS
COLUMBUS       SUNNY     47  27  45 SW21G26   30.01F
OSU AIRPORT    SUNNY     47  28  47 SW17G25   30.00S
BOLTON FIELD   SUNNY     46  28  49 SW20G26   30.02S
RICKENBACK AFB SUNNY     47  28  47 SW21      30.01F
NEWARK         SUNNY     47  27  45 SW18G25   30.01S
MARION         NOT AVBL
LANCASTER      SUNNY     47  28  47 SW16G26   30.02F
ZANESVILLE     SUNNY     47  25  42 SW13G23   30.02F
NEW PHILLY     NOT AVBL
$$



USA.gov is the U.S. government's official web portal to all federal, state and local government web resources and services.